Showing default

GEMS2-AMETHYST, 68505

Orbit data source: Space-Track

GEMS2-AMETHYST, 68505 is an American payload satellite in SSO that was launched on Mon, 30 Mar 2026 UTC via an FALCON 9 launch vehicle from the Air Force Western Test Range (AFWTR). Payload-class satellites include a variety of spacecraft equipped with specific instruments for various scientific and technological missions. These include communications satellites like Starlink; space stations such as the ISS; scientific satellites like the Hubble; Earth observation satellites from companies like Planet Labs, Umbra, and HawkEye 360; GPS; miniature CubeSats for education and research; and military/defense satellites.

Loading next visibility...
Identifier
68505, 2026-067CT
Orbit
SSO
Country
Flag of USUS
Related business
Manufacturer
OMS
Mission
Operational spacecraft
Bus & Motor
CUBESAT 6U, Unknown motor
Mass
10 kg wet, ~10 kg dry
Launch date (UTC)
2026-03-30 (3 months ago)
Launch vehicle
FALCON 9
Launch site
Air Force Western Test Range (AFWTR)
Object type
Payload
Rocket body
Debris
Shape & HBR
Unknown shape, 14.5 m
Radar Cross Section
Medium (>0.1 m² and <1 m²)

Expand to show TLE details & history
Last TLE update: 2 days ago

TLE from 2 days ago
0 GEMS2-AMETHYST
1 68505U 26067CT  26171.38445257  .00003059  00000-0  31367-3 0  9990
2 68505  97.7602 129.4835 0006731  46.7420 313.4359 14.91163934 12191
Epoch: 2026-06-20T09:13Z
TLE epoch observation values (Epoch: 2026-06-20T09:13:36.702Z)
Latitude
-0.00002°
Longitude
82.48073°
Altitude
594.12 km
Speed
7.565 km/s
True Right ascension
08h 37m 56s
True Declination
0° 00' 00"
Sunlit
Object was in daylight at epoch
Visualization orbit readout
Latitude
Unknown
Longitude
Unknown
Altitude
Unknown
Speed
Unknown
Apparent Right ascension
Unknown
Apparent Declination
Unknown
Sunlit
N/A
Visualization observer readout
Local Sidereal Time
16:35:34
Azimuth
Unknown
Elevation
Unknown
Doppler factor
Unknown
Orbital elements
Apogee altitude
596.016 km
Perigee altitude
586.634 km
Semi-major axis
6,969.462 km
Eccentricity
0.00067
Inclination
97.7602°
RAAN
129.4835°
Arg. of periapsis
46.742°
True anomaly
313.37986°
Mean anomaly
313.4359°
Eccentric anomaly
313.40788°
Mean motion
3.7303 °/min
Orbital period
96.51 mins
BSTAR
0.00031367
Loading maneuver chart data...
Computing Atmospheric mass density...
Loading historical data...
Loading historical data...
Loading historical data...
Loading historical data...
Loading historical data...
Loading historical data...
Loading historical data...

Documentation

Showing up to 5 results
|